[[{"header":{"parameterUnit":"m.s-1","parameterCategory":1,"la1":30.2991,"la2":30.254,"lo1":-89.0895,"lo2":-89.0444,"dy":0.0017,"dx":0.0017,"nx":28,"ny":28,"refTime":"2023-11-09T03:00:00:Z","depth":0,"parameterNumber":2,"parameterNumberName":"U-component_of_WINDS"},"data":[0,0,0,0,0,0,0,0,0,0,0,0,0,0,0,0,0,0,0,0,0,0,0,0,0,0,0,0,0,0,0,0,0,0,0,0,0,0,0,0,0,0,0,0,0,0,0,0,0,0,0,0,0,0,0,0,0,0,-2.4889,-2.4888,0,-2.4861,-2.4861,-2.4861,-2.478,-2.4778,-2.4776,-2.4774,-2.4747,-2.4748,-2.4749,0,0,0,0,0,0,0,0,0,0,0,0,0,-2.4874,-2.4874,-2.4889,-2.4888,-2.4888,-2.4861,-2.4861,-2.486,-2.478,-2.4778,-2.4775,-2.4773,-2.4747,-2.4748,-2.4749,0,0,0,0,0,0,0,0,0,0,0,0,0,-2.4867,-2.4875,-2.4889,-2.4845,-2.484,-2.4861,-2.4861,-2.486,-2.478,-2.4778,-2.4775,-2.4772,-2.4747,-2.4748,-2.475,-2.4812,0,0,-2.4754,-2.4754,0,0,0,0,0,0,0,0,-2.4867,-2.4867,-2.4851,-2.4848,-2.4843,-2.4821,-2.4846,-2.4844,-2.4781,-2.4803,-2.4774,-2.4771,-2.4774,-2.4773,-2.4774,-2.481,-2.4809,-2.4754,-2.4755,-2.4755,-2.4756,0,0,0,0,0,0,0,-2.4868,-2.4868,-2.4878,-2.4851,-2.4846,-2.4827,-2.4823,-2.4845,-2.4804,-2.4801,-2.4795,-2.4793,-2.4771,-2.4773,-2.4773,-2.4809,-2.4754,-2.4755,-2.4756,-2.4757,-2.4896,-2.4899,0,0,0,0,0,0,-2.4874,-2.4869,-2.4879,-2.4877,-2.4849,-2.4829,-2.4825,-2.4831,-2.4803,-2.4797,-2.4795,-2.4789,-2.4772,-2.4771,-2.4771,-2.4843,-2.4755,-2.4757,-2.4758,-2.4893,-2.4897,-2.49,0,0,0,0,0,0,-2.4874,-2.4876,-2.488,-2.4871,-2.487,-2.4832,-2.484,-2.4832,-2.4833,-2.4799,-2.4791,-2.4804,-2.477,-2.4769,-2.4802,-2.4841,-2.4757,-2.4759,-2.489,-2.4894,-2.4898,-2.4986,0,0,0,0,0,0,-2.4874,-2.4876,-2.4899,-2.4872,-2.4871,-2.4911,-2.4842,-2.4833,-2.4835,-2.4827,-2.4805,-2.4799,-2.4767,-2.4801,-2.4804,-2.4841,-2.476,-2.4886,-2.4892,-2.4897,-2.4979,-2.4992,-2.5004,0,0,0,0,0,-2.4874,-2.4925,-2.49,-2.4902,-2.4898,-2.4913,-2.4912,-2.4874,-2.4839,-2.4861,-2.484,-2.48,-2.4836,-2.4805,-2.4808,-2.4846,-2.4884,-2.489,-2.4897,-2.4974,-2.499,-2.5003,0,0,0,0,0,0,-2.4956,-2.492,-2.4893,-2.4936,-2.4929,-2.4899,-2.4926,-2.4893,-2.4895,-2.4887,-2.4841,-2.4836,-2.4876,-2.4864,-2.483,-2.4905,-2.4853,-2.4861,-2.4911,-2.4926,-2.4938,-2.494,-2.4761,0,0,0,0,0,-2.498,-2.4994,-2.4962,-2.5003,-2.5001,-2.4965,-2.497,-2.4942,-2.4931,-2.4928,-2.4908,-2.4901,-2.491,-2.4918,-2.4925,-2.4978,-2.4972,-2.5005,-2.5018,-2.5028,-2.5035,-2.5063,-2.5077,-2.4921,-2.4921,-2.4921,0,0,-2.5028,-2.501,-2.5022,-2.502,-2.501,-2.5027,-2.4962,-2.4982,-2.4995,-2.4931,-2.496,-2.4947,-2.4935,-2.4979,-2.4997,-2.497,-2.5077,-2.5036,-2.5045,-2.5046,-2.5071,-2.5086,-2.5099,-2.4925,-2.4925,-2.4924,0,0,-2.5124,-2.5112,-2.5145,-2.5137,-2.5124,-2.51,-2.5108,-2.5084,-2.5073,-2.5102,-2.5055,-2.5069,-2.5087,-2.5081,-2.508,-2.5176,-2.5139,-2.518,-2.5244,-2.5272,-2.5284,-2.5295,-2.5329,-2.5342,-2.5187,-2.5187,-2.5187,0,-2.5185,-2.5208,-2.5167,-2.519,-2.5191,-2.5135,-2.5169,-2.5163,-2.5153,-2.5156,-2.5126,-2.5147,-2.5136,-2.5177,-2.5201,-2.5202,-2.5211,-2.5182,-2.5285,-2.5296,-2.5305,-2.5338,-2.5351,-2.5192,-2.5191,-2.5191,-2.519,0,-2.5284,-2.5301,-2.533,-2.5322,-2.5326,-2.5355,-2.5319,-2.5329,-2.5301,-2.528,-2.5312,-2.5296,-2.5299,-2.5307,-2.528,-2.5346,-2.5329,-2.5294,-2.524,-2.5326,-2.5355,-2.5367,-2.5199,-2.5197,-2.5196,-2.5195,0,0,-2.5429,-2.54,-2.5411,-2.5407,-2.5389,-2.5401,-2.5429,-2.5432,-2.5441,-2.5437,-2.5458,-2.5476,-2.5442,-2.5442,-2.5414,-2.5438,-2.5516,-2.5399,-2.5398,-2.5421,-2.5588,-2.5615,-2.563,-2.5492,-2.5495,-2.5496,-2.5589,0,-2.552,-2.5564,-2.5529,-2.5579,-2.5595,-2.5543,-2.5566,-2.5559,-2.5541,-2.5552,-2.5532,-2.5545,-2.5501,-2.55,-2.5522,-2.5502,-2.5549,-2.5495,-2.5513,-2.5514,-2.5517,-2.5646,-2.5674,-2.5763,-2.5601,-2.5603,-2.5604,0,-2.5631,-2.5632,-2.5685,-2.5665,-2.567,-2.5692,-2.5692,-2.5704,-2.5694,-2.568,-2.568,-2.5646,-2.5672,-2.5621,-2.5657,-2.5621,-2.5626,-2.5618,-2.5621,-2.562,-2.5564,-2.5649,-2.579,-2.5803,-2.5622,-2.5621,-2.5619,0,-2.5733,-2.5747,-2.578,-2.5778,-2.5756,-2.5773,-2.5764,-2.5752,-2.5757,-2.5758,-2.5761,-2.5765,-2.5768,-2.5772,-2.5741,-2.5706,-2.5781,-2.5727,-2.577,-2.5771,-2.5787,-2.5787,-2.5931,-2.5792,-2.5792,-2.5792,-2.5791,0,-2.5837,-2.5871,-2.5825,-2.5846,-2.5883,-2.5843,-2.5881,-2.5867,-2.5857,-2.5875,-2.583,-2.5848,-2.5805,-2.5819,-2.5794,-2.5828,-2.583,-2.5819,-2.5812,-2.5823,-2.5824,-2.5825,-2.5818,-2.5795,-2.5794,-2.5794,-2.5793,0,-2.5956,-2.5926,-2.5959,-2.5936,-2.5931,-2.5959,-2.5939,-2.5958,-2.5938,-2.5961,-2.5964,-2.5932,-2.5946,-2.5915,-2.5925,-2.5908,-2.5957,-2.594,-2.596,-2.5955,-2.5999,-2.5996,-2.6149,-2.6167,-2.6017,-2.6019,-2.602,0,-2.6024,-2.6049,-2.6029,-2.6037,-2.6031,-2.6045,-2.605,-2.6013,-2.602,-2.6012,-2.6032,-2.6042,-2.6048,-2.6072,-2.6051,-2.6058,-2.6041,-2.6095,-2.6042,-2.6053,-2.6042,-2.6041,-2.6044,-2.6105,-2.6107,-2.6109,-2.611,0,-2.6149,-2.6133,-2.6142,-2.6146,-2.6153,-2.6155,-2.6153,-2.6163,-2.6123,-2.6133,-2.6147,-2.6151,-2.6161,-2.6172,-2.6175,-2.6167,-2.6132,-2.6127,-2.6137,-2.6148,-2.6159,-2.6154,-2.5989,-2.6123,-2.6122,-2.6121,-2.612,-2.612,-2.6244,-2.6264,-2.6254,-2.6265,-2.626,-2.626,-2.6276,-2.6259,-2.627,-2.6275,-2.6252,-2.6271,-2.6263,-2.6263,-2.6258,-2.6273,-2.6249,-2.6264,-2.6268,-2.6272,-2.6279,-2.6157,-2.6273,-2.6273,-2.6273,-2.6272,-2.6272,0,-2.6366,-2.6357,-2.6368,-2.6368,-2.6377,-2.6344,-2.6341,-2.6352,-2.6369,-2.6364,-2.6371,-2.6387,-2.6398,-2.6378,-2.6386,-2.6401,-2.6386,-2.6405,-2.6403,-2.6402,-2.63,-2.6291,-2.6417,-2.6417,-2.6417,-2.6417,-2.6417,-2.6417,-2.6431,-2.6464,-2.6448,-2.6479,-2.6469,-2.6487,-2.6489,-2.6489,-2.6484,-2.6505,-2.6514,-2.6501,-2.649,-2.6497,-2.6506,-2.65,-2.6505,-2.6529,-2.6518,-2.6423,-2.6409,-2.6395,-2.6386,-2.6531,-2.6531,-2.6618,-2.6619,-2.6619]},{"header":{"parameterUnit":"m.s-1","parameterCategory":1,"la1":30.2991,"la2":30.254,"lo1":-89.0895,"lo2":-89.0444,"dy":0.0017,"dx":0.0017,"nx":28,"ny":28,"refTime":"2023-11-09T03:00:00:Z","depth":0,"parameterNumber":3,"parameterNumberName":"V-component_of_WINDS"},"data":[0,0,0,0,0,0,0,0,0,0,0,0,0,0,0,0,0,0,0,0,0,0,0,0,0,0,0,0,0,0,0,0,0,0,0,0,0,0,0,0,0,0,0,0,0,0,0,0,0,0,0,0,0,0,0,0,0,0,0.3069,0.307,0,0.3135,0.3136,0.3137,0.3196,0.3197,0.3197,0.3198,0.3264,0.3265,0.3266,0,0,0,0,0,0,0,0,0,0,0,0,0,0.2993,0.2995,0.3069,0.307,0.3071,0.3135,0.3136,0.3137,0.3196,0.3197,0.3197,0.3198,0.3264,0.3265,0.3266,0,0,0,0,0,0,0,0,0,0,0,0,0,0.304,0.2995,0.3069,0.3108,0.3112,0.3135,0.3136,0.3137,0.3196,0.3197,0.3198,0.3199,0.3263,0.3265,0.3266,0.3256,0,0,0.3271,0.3272,0,0,0,0,0,0,0,0,0.3037,0.3042,0.3101,0.3105,0.311,0.3158,0.3134,0.3177,0.3195,0.3164,0.3198,0.3199,0.3228,0.3232,0.3243,0.3259,0.3262,0.3272,0.3273,0.3273,0.3274,0,0,0,0,0,0,0,0.3034,0.304,0.3095,0.3102,0.3107,0.3122,0.313,0.3142,0.3189,0.3167,0.3171,0.3178,0.323,0.3241,0.3245,0.3263,0.3272,0.3273,0.3274,0.3275,0.3275,0.3274,0,0,0,0,0,0,0.3024,0.3037,0.3093,0.3097,0.3075,0.3122,0.3131,0.3142,0.3189,0.3197,0.3177,0.3181,0.3237,0.3243,0.3247,0.3239,0.3273,0.3275,0.3276,0.3276,0.3275,0.3274,0,0,0,0,0,0,0.3023,0.3029,0.309,0.3068,0.3077,0.3123,0.3134,0.3142,0.3153,0.3197,0.3206,0.3179,0.3238,0.3245,0.3254,0.3242,0.3276,0.3277,0.3277,0.3276,0.3274,0.3221,0,0,0,0,0,0,0.302,0.3028,0.3024,0.3068,0.3078,0.3096,0.3133,0.3143,0.3156,0.3161,0.3201,0.3209,0.324,0.3251,0.3255,0.3245,0.3278,0.3279,0.3277,0.3275,0.3224,0.3218,0.3213,0,0,0,0,0,0.3017,0.3006,0.3024,0.303,0.3074,0.3095,0.3101,0.3137,0.3155,0.3151,0.318,0.3208,0.3243,0.3251,0.3257,0.3247,0.328,0.3277,0.3275,0.3227,0.3219,0.3213,0,0,0,0,0,0,0.2959,0.3012,0.3032,0.3035,0.306,0.3105,0.3102,0.3128,0.3148,0.3152,0.3195,0.3204,0.3208,0.3228,0.3237,0.324,0.3265,0.3264,0.3226,0.322,0.3214,0.3209,0.328,0,0,0,0,0,0.2946,0.2958,0.3004,0.3002,0.3014,0.3055,0.3066,0.3092,0.3119,0.313,0.3159,0.3185,0.3202,0.3212,0.323,0.3228,0.3238,0.3224,0.3218,0.3213,0.3211,0.3213,0.3208,0.3267,0.3267,0.3267,0,0,0.292,0.2951,0.2956,0.2991,0.3014,0.3026,0.3064,0.3074,0.3084,0.3131,0.3142,0.3164,0.3196,0.32,0.3203,0.3217,0.3198,0.321,0.3206,0.3207,0.321,0.3205,0.32,0.3265,0.3265,0.3266,0,0,0.2879,0.2903,0.2904,0.2927,0.2961,0.2989,0.2989,0.3031,0.3048,0.3059,0.3096,0.3108,0.3135,0.3157,0.3171,0.314,0.3167,0.3145,0.3115,0.3117,0.3112,0.3108,0.3098,0.3093,0.3143,0.3143,0.3143,0,0.2842,0.2862,0.2902,0.2911,0.2926,0.297,0.2972,0.2992,0.303,0.3039,0.3054,0.3092,0.3116,0.3126,0.3118,0.3128,0.3131,0.314,0.3109,0.3106,0.3103,0.3094,0.309,0.314,0.3141,0.3141,0.3141,0,0.2815,0.2828,0.2826,0.2862,0.2877,0.2882,0.2923,0.2933,0.2958,0.2985,0.2997,0.3028,0.3053,0.3058,0.3082,0.3072,0.308,0.3101,0.3128,0.3094,0.3086,0.3083,0.3136,0.3137,0.3138,0.3139,0,0,0.2738,0.2798,0.2796,0.2814,0.2856,0.2867,0.2875,0.2901,0.2909,0.2934,0.2942,0.2966,0.2987,0.3003,0.303,0.3031,0.3006,0.3054,0.3055,0.3044,0.2999,0.2982,0.2977,0.3024,0.3024,0.3023,0.2996,0,0.2704,0.2721,0.2758,0.2764,0.2777,0.2821,0.2828,0.2854,0.288,0.2895,0.2923,0.2939,0.2966,0.2976,0.2979,0.3009,0.2998,0.3011,0.3033,0.3033,0.3024,0.2973,0.2955,0.2928,0.2993,0.2993,0.2992,0,0.2666,0.269,0.2697,0.274,0.2747,0.2752,0.278,0.2794,0.2825,0.2844,0.2863,0.2894,0.2905,0.2929,0.2946,0.2954,0.2965,0.2981,0.2981,0.2984,0.301,0.2975,0.292,0.2916,0.2988,0.2988,0.2988,0,0.261,0.2644,0.2653,0.2667,0.2716,0.272,0.274,0.2773,0.2787,0.2811,0.2821,0.2845,0.2859,0.2877,0.2914,0.2928,0.2927,0.2954,0.2943,0.2942,0.294,0.294,0.2886,0.2947,0.2947,0.2947,0.2947,0,0.2569,0.2571,0.2629,0.2634,0.2639,0.2682,0.2685,0.271,0.2739,0.2751,0.2789,0.2799,0.2847,0.2862,0.2891,0.2901,0.2906,0.2922,0.293,0.2919,0.2917,0.2927,0.293,0.2946,0.2946,0.2946,0.2946,0,0.2506,0.2545,0.2558,0.2604,0.2616,0.2618,0.2658,0.2665,0.2693,0.2708,0.2713,0.2758,0.2778,0.2817,0.2847,0.2867,0.2871,0.2884,0.286,0.2865,0.2852,0.2853,0.2803,0.2799,0.2861,0.2861,0.286,0,0.2477,0.2481,0.2528,0.2539,0.2559,0.2575,0.259,0.2633,0.2647,0.2684,0.2687,0.2711,0.2732,0.2763,0.2798,0.2822,0.2836,0.2817,0.284,0.2829,0.2837,0.2836,0.2837,0.2812,0.2811,0.281,0.2809,0,0.2422,0.2442,0.2462,0.2489,0.2505,0.2528,0.2554,0.256,0.2609,0.2622,0.2644,0.2661,0.2694,0.2717,0.2747,0.2768,0.2797,0.2802,0.2801,0.279,0.2777,0.2784,0.2847,0.2803,0.2804,0.2804,0.2804,0.2805,0.2377,0.2382,0.2417,0.2438,0.2462,0.2485,0.2495,0.2525,0.2544,0.2575,0.2599,0.2619,0.2652,0.2695,0.2715,0.2732,0.2745,0.2743,0.2743,0.2742,0.2738,0.2774,0.2737,0.2737,0.2737,0.2738,0.2738,0,0.2324,0.2349,0.2368,0.2403,0.242,0.2447,0.2476,0.2489,0.2506,0.2535,0.2555,0.2581,0.2605,0.2642,0.2669,0.2675,0.2689,0.268,0.268,0.2685,0.2724,0.2722,0.2669,0.2669,0.2669,0.2669,0.2669,0.2669,0.2299,0.231,0.2334,0.2358,0.2383,0.2404,0.2418,0.244,0.2463,0.2491,0.2511,0.2535,0.2568,0.2597,0.262,0.263,0.2638,0.2626,0.264,0.2676,0.2682,0.2688,0.2687,0.2627,0.2627,0.2601,0.2601,0.26]}]]